Regional Weather Roundup
Issued by NWS Charleston, WV

Home | Current Version | Previous Version | Graphics & Text | Print | Product List | Glossary On
Versions: 1 2 3 4 5 6 7 8 9 10 11 12 13 14 15 16 17 18 19 20 21 22 23 24 25 26 27 28 29 30 31 32 33 34 35 36 37 38 39 40 41 42 43 44 45 46 47 48 49 50
000
ASUS41 KRLX 051610
RWRRLX
West Virginia Regional Weather Roundup
National Weather Service Charleston WV
1200 PM EDT TUE MAY 05 2015

Note: "fair" indicates few or no clouds below 12,000 feet with no
significant weather and/or obstructions to visibility.

WVZ003-051700-
Northern Panhandle of West Virginia

CITY           SKY/WX    TMP DP  RH WIND       PRES   REMARKS
WHEELING       CLOUDY    66  60  81 W6        30.30S
$$

WVZ009-051700-
Northwest West Virginia

CITY           SKY/WX    TMP DP  RH WIND       PRES   REMARKS
PARKERSBURG    SUNNY     76  59  55 CALM      30.32S
$$

WVZ006-051700-
Western West Virginia

CITY           SKY/WX    TMP DP  RH WIND       PRES   REMARKS
HUNTINGTON     SUNNY     79  57  46 MISG      30.30S
$$

WVZ015-051700-
West Central West Virginia

CITY           SKY/WX    TMP DP  RH WIND       PRES   REMARKS
CHARLESTON     MOSUNNY   78  55  44 SW7       30.31F
$$

WVZ022-031-051700-
North Central West Virginia

CITY           SKY/WX    TMP DP  RH WIND       PRES   REMARKS
CLARKSBURG     PTSUNNY   75  57  53 SW7       30.30F
MORGANTOWN     PTSUNNY   71  55  56 CALM      30.31F
$$

WVZ025-035-042-045-051700-
Southern West Virginia

CITY           SKY/WX    TMP DP  RH WIND       PRES   REMARKS
BECKLEY        MOSUNNY   75  49  39 VRB3      30.36F
LOGAN            N/A     77  54  44 CALM      30.31F
BLUEFIELD      MOSUNNY   75  47  36 CALM      30.39F
LEWISBURG      SUNNY     77  51  40 SW8       30.35F
$$

WVZ047-051700-
Northern Mountains of West Virginia

CITY           SKY/WX    TMP DP  RH WIND       PRES   REMARKS
ELKINS         LGT RAIN  70  54  56 NW15G21   30.34S
$$

WVZ052-051700-
Eastern Panhandle of West Virginia

CITY           SKY/WX    TMP DP  RH WIND       PRES   REMARKS
MARTINSBURG    MOSUNNY   79  56  45 VRB3      30.27F
PETERSBURG     PTSUNNY   80  51  36 N3        30.28S
$$



USA.gov is the U.S. government's official web portal to all federal, state and local government web resources and services.